Temp
-15 -15 -14 -14 -14 -14 -14 -14 -14 -14 -14 -13 -14 -14 -14 -14 -13 -13 -13 -13 -13 -13 -13 -13 -13 -13 -13 -12 -13 -12 -12 -12 -12 -12 -12 -12 -12 -12
-15 -15 -15 -14 -14 -14 -14 -14 -14 -14 -14 -14 -14 -14 -14 -14 -14 -14 -14 -14 -13 -13 -13 -13 -13 -13 -13 -13 -13 -13 -12 -13 -13 -12 -12 -13 -12 -13
-15 -15 -15 -15 -15 -14 -14 -14 -14 -14 -14 -14 -14 -14 -14 -14 -14 -14 -14 -14 -14 -14 -13 -13 -13 -13 -13 -13 -13 -13 -13 -13 -13 -13 -13 -13 -13 -13
-16 -15 -15 -15 -15 -15 -15 -15 -15 -15 -15 -15 -15 -15 -15 -14 -14 -14 -14 -14 -14 -14 -14 -14 -14 -14 -14 -13 -13 -13 -13 -13 -13 -13 -13 -13 -13 -13
-16 -16 -16 -16 -15 -15 -15 -15 -15 -15 -15 -15 -15 -15 -15 -15 -15 -15 -15 -14 -14 -14 -14 -14 -14 -14 -14 -14 -14 -14 -14 -14 -13 -14 -14 -14 -14 -14
-17 -17 -17 -16 -16 -16 -16 -16 -15 -15 -15 -15 -15 -15 -15 -15 -15 -15 -15 -15 -15 -14 -14 -14 -14 -14 -14 -14 -14 -14 -15 -15 -15 -15 -14 -14 -14 -14
-18 -18 -17 -17 -17 -17 -16 -16 -16 -16 -16 -15 -15 -15 -16 -16 -16 -15 -15 -15 -15 -15 -15 -15 -15 -15 -15 -15 -15 -15 -15 -15 -15 -15 -15 -16 -16 -16
-19 -18 -18 -18 -18 -18 -18 -17 -17 -17 -17 -17 -16 -16 -16 -16 -16 -16 -16 -16 -16 -16 -16 -16 -16 -16 -16 -16 -16 -16 -16 -16 -16 -16 -16 -16 -16 -16
-19 -19 -19 -19 -19 -19 -18 -18 -18 -18 -18 -18 -17 -17 -17 -17 -17 -17 -17 -17 -17 -17 -17 -17 -17 -17 -17 -17 -17 -17 -17 -16 -16 -17 -16 -16 -16 -16
-20 -19 -19 -19 -19 -19 -19 -19 -19 -19 -19 -18 -18 -18 -18 -18 -18 -18 -18 -17 -17 -17 -17 -17 -17 -17 -17 -17 -17 -17 -17 -18 -18 -17 -17 -17 -17 -17
-21 -20 -20 -20 -20 -19 -19 -19 -19 -19 -19 -19 -18 -18 -18 -18 -18 -18 -18 -18 -18 -18 -18 -18 -18 -18 -18 -18 -18 -18 -18 -18 -18 -18 -18 -18 -18 -18
-21 -21 -21 -21 -20 -20 -20 -20 -20 -20 -20 -20 -19 -19 -19 -19 -19 -19 -19 -19 -19 -19 -19 -18 -18 -18 -18 -18 -18 -18 -19 -19 -19 -19 -19 -19 -18 -18
-23 -22 -22 -22 -21 -21 -21 -21 -20 -20 -20 -20 -20 -20 -20 -20 -20 -20 -20 -19 -19 -19 -19 -19 -18 -19 -19 -18 -18 -19 -19 -19 -19 -19 -19 -19 -19 -18
-24 -23 -23 -23 -22 -22 -22 -21 -21 -21 -21 -21 -21 -21 -21 -21 -20 -20 -20 -20 -20 -20 -20 -20 -19 -19 -19 -19 -19 -19 -19 -19 -19 -19 -19 -19 -19 -19
-25 -25 -24 -24 -23 -23 -23 -22 -22 -22 -22 -22 -22 -22 -21 -21 -21 -21 -21 -20 -20 -20 -20 -20 -20 -19 -19 -19 -19 -19 -19 -19 -19 -19 -19 -19 -19 -19
-26 -25 -25 -25 -24 -24 -24 -23 -23 -23 -22 -22 -22 -22 -22 -22 -21 -21 -21 -21 -21 -21 -21 -20 -20 -20 -20 -20 -19 -19 -19 -19 -19 -19 -19 -19 -19 -19
-27 -27 -26 -26 -25 -25 -24 -24 -24 -23 -23 -22 -22 -22 -22 -22 -22 -22 -22 -22 -22 -22 -21 -21 -20 -20 -20 -20 -20 -20 -19 -19 -19 -19 -19 -19 -19 -19
-29 -28 -28 -27 -26 -26 -25 -25 -24 -24 -24 -23 -23 -23 -22 -22 -22 -22 -22 -22 -22 -22 -22 -22 -21 -21 -20 -21 -20 -20 -20 -20 -20 -20 -20 -19 -19 -19
-29 -29 -29 -28 -28 -27 -27 -26 -25 -25 -24 -24 -24 -23 -23 -23 -23 -22 -22 -22 -22 -22 -22 -22 -22 -21 -21 -21 -23 -21 -21 -21 -20 -20 -20 -20 -20 -20
-31 -30 -30 -29 -29 -28 -28 -27 -26 -26 -25 -25 -24 -24 -23 -23 -23 -23 -23 -22 -22 -22 -22 -22 -22 -22 -21 -22 -22 -23 -22 -22 -21 -21 -21 -21 -20 -19
-32 -31 -31 -30 -30 -29 -29 -28 -27 -27 -26 -26 -25 -25 -24 -24 -24 -23 -23 -23 -23 -23 -23 -22 -22 -22 -22 -22 -22 -22 -23 -22 -22 -21 -21 -20 -20 -20
-33 -33 -32 -31 -31 -30 -29 -29 -28 -28 -27 -26 -26 -25 -25 -25 -24 -24 -24 -23 -23 -23 -23 -23 -23 -22 -22 -22 -22 -22 -23 -23 -22 -22 -21 -20 -19 -19
-33 -33 -33 -33 -32 -31 -30 -30 -29 -29 -28 -27 -27 -26 -26 -25 -25 -25 -24 -24 -24 -23 -23 -23 -23 -23 -23 -22 -22 -23 -23 -23 -22 -22 -21 -21 -20 -19
Height
5713 5717 5720 5723 5728 5731 5734 5738 5741 5743 5746 5751 5753 5756 5758 5761 5764 5766 5768 5769 5771 5774 5775 5777 5777 5779 5780 5780 5780 5780 5781 5782 5782 5782 5782 5783 5783 5784
5699 5704 5708 5712 5716 5719 5722 5725 5728 5732 5735 5739 5742 5744 5747 5750 5751 5753 5755 5757 5758 5760 5763 5765 5766 5766 5767 5768 5768 5768 5769 5770 5770 5769 5770 5771 5772 5772
5685 5690 5694 5698 5702 5706 5710 5712 5716 5720 5723 5726 5729 5731 5734 5737 5738 5740 5742 5744 5745 5747 5749 5751 5752 5752 5753 5754 5754 5755 5755 5755 5756 5756 5755 5756 5756 5756
5670 5675 5678 5682 5687 5691 5695 5698 5702 5707 5711 5713 5714 5717 5720 5722 5725 5727 5727 5729 5731 5732 5735 5735 5736 5738 5739 5739 5738 5739 5739 5739 5739 5739 5740 5741 5741 5741
5654 5657 5663 5667 5671 5675 5679 5682 5686 5691 5696 5699 5700 5702 5704 5705 5709 5711 5712 5713 5716 5716 5717 5719 5721 5721 5721 5722 5722 5722 5721 5722 5723 5722 5723 5723 5723 5724
5637 5641 5645 5649 5653 5657 5662 5666 5671 5675 5678 5683 5685 5685 5687 5687 5691 5693 5695 5697 5699 5699 5699 5702 5702 5702 5702 5701 5701 5702 5702 5703 5703 5703 5703 5703 5702 5703
5619 5624 5628 5632 5636 5641 5644 5647 5652 5656 5659 5663 5666 5667 5668 5670 5672 5674 5677 5678 5679 5680 5682 5683 5683 5683 5681 5680 5680 5680 5680 5679 5679 5680 5680 5681 5681 5681
5600 5605 5609 5613 5618 5621 5625 5629 5634 5637 5639 5642 5645 5648 5649 5651 5652 5655 5657 5660 5662 5660 5662 5663 5662 5663 5661 5659 5659 5658 5657 5657 5657 5657 5656 5657 5657 5658
5581 5585 5589 5594 5598 5602 5606 5610 5615 5617 5619 5622 5626 5628 5631 5631 5633 5634 5636 5639 5639 5641 5639 5647 5641 5642 5640 5640 5638 5637 5636 5635 5634 5632 5632 5633 5633 5635
5561 5566 5571 5575 5580 5584 5588 5593 5596 5597 5599 5604 5607 5609 5609 5611 5613 5614 5617 5618 5620 5620 5615 5626 5621 5622 5621 5619 5616 5616 5614 5611 5610 5609 5609 5609 5610 5611
5542 5546 5551 5555 5559 5564 5570 5572 5575 5577 5580 5584 5587 5588 5590 5591 5592 5595 5596 5598 5600 5600 5593 5597 5601 5603 5601 5600 5597 5595 5592 5589 5588 5588 5587 5587 5587 5588
5523 5527 5531 5536 5540 5544 5549 5553 5555 5557 5562 5564 5566 5568 5571 5572 5573 5575 5577 5578 5579 5581 5574 5576 5580 5579 5583 5583 5579 5576 5571 5568 5568 5568 5568 5568 5567 5568
5504 5507 5512 5517 5522 5526 5531 5535 5538 5540 5543 5547 5549 5552 5554 5555 5556 5557 5558 5560 5560 5560 5555 5557 5563 5559 5558 5564 5566 5560 5556 5552 5552 5551 5550 5550 5549 5547
5485 5489 5494 5500 5504 5508 5513 5517 5520 5523 5526 5529 5532 5534 5536 5537 5538 5539 5540 5542 5542 5542 5539 5540 5545 5543 5544 5545 5545 5545 5540 5537 5537 5537 5535 5532 5531 5530
5468 5471 5477 5482 5486 5491 5495 5499 5503 5506 5509 5512 5514 5516 5518 5520 5521 5522 5523 5525 5524 5524 5524 5524 5525 5527 5527 5528 5529 5526 5522 5524 5521 5520 5518 5517 5515 5512
5449 5454 5459 5464 5468 5472 5476 5480 5484 5488 5491 5494 5498 5500 5502 5503 5505 5507 5507 5508 5508 5506 5507 5508 5509 5510 5511 5510 5510 5508 5505 5507 5507 5503 5503 5501 5498 5495
5432 5436 5440 5445 5450 5454 5459 5463 5467 5471 5475 5478 5481 5484 5485 5487 5490 5492 5492 5492 5493 5491 5490 5492 5494 5494 5494 5494 5493 5489 5491 5490 5487 5487 5485 5485 5482 5478
5413 5417 5421 5426 5431 5436 5441 5446 5450 5455 5458 5462 5465 5467 5469 5472 5475 5477 5478 5478 5478 5478 5477 5477 5478 5479 5479 5478 5475 5475 5474 5472 5471 5470 5466 5465 5465 5460
5396 5399 5404 5409 5414 5419 5424 5428 5433 5437 5442 5445 5448 5451 5454 5457 5460 5462 5464 5465 5465 5464 5464 5465 5466 5466 5466 5464 5460 5453 5458 5456 5455 5453 5449 5448 5446 5440
5374 5380 5386 5392 5397 5401 5406 5411 5416 5420 5424 5428 5432 5435 5439 5442 5445 5448 5450 5451 5451 5452 5452 5453 5453 5453 5454 5453 5452 5444 5438 5441 5439 5437 5436 5433 5427 5422
5354 5360 5366 5372 5378 5383 5388 5393 5398 5403 5407 5411 5416 5420 5424 5427 5430 5433 5435 5438 5438 5440 5440 5440 5441 5441 5441 5440 5438 5435 5430 5425 5423 5421 5419 5417 5411 5403
5339 5343 5346 5351 5357 5363 5370 5375 5380 5386 5391 5395 5400 5405 5409 5413 5416 5419 5422 5424 5426 5427 5428 5428 5428 5428 5428 5427 5425 5422 5419 5415 5409 5406 5403 5398 5392 5386
5326 5328 5331 5334 5338 5343 5349 5355 5361 5368 5374 5379 5384 5389 5393 5397 5401 5404 5407 5410 5412 5414 5415 5415 5416 5416 5415 5413 5411 5410 5407 5403 5401 5398 5391 5384 5375 5367
Wind_Speed
53 53 52 52 51 50 48 49 48 48 48 49 49 50 50 50 49 48 48 48 48 48 48 47 46 46 47 47 47 47 48 48 48 47 47 48 48 49
56 55 54 53 52 52 51 51 50 49 49 50 52 52 52 53 53 53 52 52 53 53 52 52 51 51 52 52 52 53 53 54 55 55 54 55 55 54
62 62 61 59 58 57 56 55 53 53 53 53 54 55 56 57 58 57 57 58 58 59 58 58 58 58 58 57 58 58 59 60 60 60 60 61 62 62
66 67 65 63 64 62 61 60 60 59 59 59 59 60 60 61 62 62 63 64 64 64 64 64 63 63 62 63 63 64 65 65 66 67 66 66 67 67
72 70 70 69 69 68 67 67 67 66 65 64 65 66 66 67 67 67 68 68 69 69 69 70 69 69 69 69 70 69 69 71 71 72 72 72 71 72
76 75 74 74 74 73 72 72 73 72 70 70 71 71 71 72 72 73 73 73 73 74 74 74 73 74 74 75 75 74 74 75 75 75 75 76 77 78
79 79 78 78 78 77 77 77 77 76 76 76 76 76 76 75 75 76 75 75 76 77 76 76 77 77 78 79 79 79 79 79 79 79 78 78 79 79
82 81 81 80 80 79 78 78 78 77 77 77 77 78 78 78 79 79 78 78 77 78 78 77 77 76 77 78 79 79 79 80 80 80 80 80 79 80
75 76 77 77 78 77 77 77 77 77 77 77 77 77 77 77 77 77 76 76 76 76 77 74 77 77 78 77 77 77 78 79 80 80 80 80 80 79
75 74 74 73 72 72 72 72 72 73 74 74 73 73 74 74 75 76 76 77 76 77 79 75 75 74 74 74 76 76 76 76 77 77 77 76 76 75
75 75 74 74 74 75 75 75 75 75 75 75 75 75 76 77 78 76 75 75 74 73 74 73 69 67 69 71 72 72 72 73 72 72 73 73 73 72
72 72 72 72 72 71 71 71 71 71 69 69 69 69 68 67 67 68 68 67 67 66 69 68 66 68 68 64 65 66 68 70 69 67 66 66 66 67
73 71 71 71 70 69 68 67 67 66 65 65 66 66 66 67 67 66 65 64 64 64 66 66 63 64 63 58 59 60 61 62 63 63 64 64 65 67
71 69 68 67 67 67 66 66 66 66 65 65 65 64 64 64 64 63 62 61 61 60 61 60 58 58 57 56 56 57 58 60 60 62 63 65 65 66
65 65 67 67 67 66 66 66 66 66 65 63 60 59 58 58 58 59 59 58 58 59 58 58 57 55 55 54 55 55 57 57 60 61 62 62 63 65
66 66 65 64 63 63 62 62 62 61 59 57 56 55 55 55 56 55 55 54 55 57 56 55 54 53 53 54 53 54 57 56 56 57 57 57 59 62
61 61 62 63 62 62 61 60 60 57 55 53 52 51 50 50 50 50 50 50 50 50 52 51 51 50 50 51 51 55 54 54 54 55 56 56 58 60
59 59 59 60 59 59 59 58 58 57 55 53 52 51 51 49 49 49 48 47 47 48 48 48 48 47 48 50 52 52 53 53 53 53 55 59 60 61
64 61 60 59 58 57 58 58 57 56 55 54 53 52 51 50 48 47 46 46 47 47 47 45 43 42 42 44 45 55 52 50 51 52 56 56 56 59
71 68 64 62 60 59 59 58 57 56 56 55 53 52 52 51 49 49 47 46 44 43 41 37 36 36 37 39 41 45 50 47 48 50 50 54 57 60
66 69 70 68 64 63 62 61 60 59 57 55 53 52 52 52 49 48 46 43 41 39 38 37 37 38 39 41 42 44 45 48 50 51 51 51 55 52
47 50 59 67 67 67 64 63 62 60 59 58 56 53 52 51 49 47 45 43 42 40 38 38 38 39 40 41 42 43 42 45 48 51 51 52 49 46
46 47 49 50 57 68 69 67 64 63 61 60 59 57 55 53 50 48 46 44 43 42 40 40 40 40 40 41 43 42 42 43 45 47 48 52 52 47
Wind_Direction
242 244 245 244 245 245 246 247 247 248 248 247 247 248 249 250 251 253 254 256 257 259 260 261 261 264 267 269 270 272 275 276 276 277 278 279 279 280
245 245 244 245 245 246 246 246 247 248 248 248 248 249 251 252 254 256 257 259 260 262 263 264 265 265 266 267 269 271 272 273 276 278 277 277 279 280
242 243 244 244 245 247 248 248 249 250 250 251 251 251 253 254 255 257 258 260 262 264 265 266 266 267 267 269 270 271 273 274 275 275 276 278 278 278
241 242 244 245 246 247 248 250 251 251 252 253 255 255 256 257 259 260 261 263 264 266 266 266 267 269 270 270 271 271 273 274 275 275 276 277 277 277
244 245 245 246 247 248 250 251 251 252 253 254 256 257 258 259 260 261 263 264 265 266 267 268 270 270 271 272 272 273 273 274 275 276 276 275 275 276
248 248 248 249 249 250 251 252 254 255 256 257 258 259 260 261 262 262 263 264 266 267 269 270 271 271 272 273 273 273 274 274 275 275 274 273 273 273
253 253 253 253 253 254 254 255 255 256 257 258 259 260 261 262 263 264 265 266 268 268 269 271 272 273 273 274 274 274 274 273 272 271 270 270 270 270
254 254 255 255 255 256 256 257 258 259 260 261 261 262 264 265 266 267 267 268 269 269 270 272 272 271 271 271 272 272 272 272 272 273 272 272 271 270
251 252 253 253 254 255 256 257 258 259 260 261 262 264 265 265 266 267 267 268 268 268 268 269 270 271 271 272 273 273 273 273 273 273 272 272 272 271
251 252 253 254 255 256 257 258 259 260 260 261 263 264 264 265 266 266 268 269 270 270 271 269 270 271 271 272 272 273 273 273 273 272 272 271 271 270
252 253 254 255 256 257 257 259 260 262 263 264 265 266 267 268 268 269 269 270 270 270 271 271 269 270 272 273 274 274 274 273 272 272 272 272 272 272
252 253 253 254 255 257 258 259 260 261 262 263 264 265 266 267 268 269 270 271 272 271 272 271 273 275 273 272 273 274 273 272 272 272 273 273 273 273
251 252 252 253 253 254 256 256 258 259 260 262 264 266 267 269 270 270 271 271 271 272 270 272 272 274 274 272 270 270 271 271 272 273 274 275 275 275
250 250 250 251 252 252 253 254 255 257 259 260 263 265 267 268 268 268 269 269 269 268 268 269 269 270 271 272 272 269 269 270 271 272 273 274 275 275
248 248 248 248 249 250 251 252 254 256 258 259 261 262 263 265 265 265 266 267 267 267 266 266 268 269 271 271 270 270 269 270 272 273 273 274 274 274
245 246 247 247 247 247 248 250 251 254 255 255 257 259 261 263 264 266 267 267 267 268 267 268 269 271 271 271 271 270 272 272 272 272 273 274 274 274
241 240 242 244 244 244 245 247 248 248 249 251 254 256 259 262 264 266 267 268 268 269 271 271 270 270 272 272 273 274 274 275 276 276 276 274 272 272
243 242 240 240 240 241 243 244 244 246 247 248 251 253 257 260 263 265 266 268 268 269 270 272 273 274 274 275 274 273 276 276 278 277 275 274 273 279
251 249 246 244 243 243 243 244 245 245 248 249 250 253 256 258 261 263 266 267 268 267 268 269 270 272 276 279 284 282 279 279 278 279 282 286 287 290
252 253 252 251 250 248 247 247 247 246 247 249 251 253 255 257 259 261 263 263 263 263 263 265 269 275 280 283 282 285 288 286 285 285 288 291 295 293
247 247 251 252 251 250 250 249 249 249 249 249 250 252 253 255 254 255 255 255 255 257 264 268 272 278 283 286 287 287 286 288 288 288 289 296 298 297
254 252 249 246 246 247 248 248 248 249 249 249 249 250 250 250 248 249 249 251 253 256 262 268 273 278 283 285 289 290 290 289 291 293 298 299 302 302
257 257 256 254 251 246 243 244 245 245 247 247 247 248 248 247 245 247 248 249 251 255 260 266 271 275 281 286 289 292 291 289 292 296 300 303 307 305